Miscellaneous Local Product
Issued by NWS Hastings, NE

Home | Current Version | Previous Version | Graphics & Text | Print | Product List | Glossary On
Versions: 1 2 3 4 5 6 7 8 9 10 11 12 13 14 15 16 17 18 19 20 21 22 23 24 25 26 27 28 29 30 31 32 33 34 35 36 37 38 39 40 41 42 43 44 45 46 47 48 49 50
193
AXUS43 KGID 230502
MISGRI

GID CWA HOURLY WEATHER ROUNDUP
NATIONAL WEATHER SERVICE HASTINGS NE
1200 AM CDT SUN APR 23 2017

NOTE: "FAIR" INDICATES FEW OR NO CLOUDS BELOW 12,000 FEET WITH NO
SIGNIFICANT WEATHER AND/OR OBSTRUCTIONS TO VISIBILITY.

...SOUTH CENTRAL NEBRASKA...

CITY           SKY/WX    TMP DP  RH WIND       PRES   REMARKS
GRAND ISLAND   CLEAR     46  33  60 S7        30.22F
HASTINGS       CLEAR     44  28  53 CALM      30.22F
KEARNEY        CLEAR     46  27  46 CALM      30.22F
ORD            CLEAR     45  31  58 SE3       30.19S
YORK           CLEAR     46  30  53 SE3       30.22S
AURORA         CLEAR     47  27  45 CALM      30.21F
LEXINGTON      CLEAR     44  29  57 S6        30.21F
HOLDREGE       CLEAR     45  25  45 S3        30.22F
HEBRON         CLEAR     41  32  70 CALM      30.23S

...NEBRASKA PANHANDLE...

CITY           SKY/WX    TMP DP  RH WIND       PRES   REMARKS
CHADRON        CLEAR     50  31  48 S14       30.08F
ALLIANCE       CLEAR     42  29  59 S12       30.13F
SCOTTSBLUFF    CLEAR     47  31  53 S9        30.14F
SIDNEY         CLEAR     37  32  82 S10       30.18F WCI  30

...WESTERN AND NORTH CENTRAL NEBRASKA...

CITY           SKY/WX    TMP DP  RH WIND       PRES   REMARKS
VALENTINE      CLEAR     52  27  38 S14       30.11F
AINSWORTH      CLEAR     46  34  63 S9        30.15F
ONEILL         CLEAR     47  33  57 S8        30.17F
BROKEN BOW     CLEAR     35  27  72 N3        30.19F
IMPERIAL       CLEAR     45  32  60 S12       30.21F
NORTH PLATTE   CLEAR     42  30  62 SE7       30.20F
MCCOOK         CLEAR     40  30  67 W9        30.23S WCI  34

...EASTERN NEBRASKA...

CITY           SKY/WX    TMP DP  RH WIND       PRES   REMARKS
NORFOLK        CLEAR     46  32  58 S8        30.19S
SO SIOUX CITY  CLEAR     49  35  58 CALM      30.19R
TEKAMAH        CLEAR     48  40  73 SW3       30.19S
COLUMBUS       CLEAR     43  34  70 CALM      30.21F
ALBION         CLEAR     43  32  65 CALM      30.21S
OMAHA EPPLEY   CLEAR     49  35  58 E3        30.19F
OFFUTT AFB     CLEAR     45  35  69 CALM      30.19F
MILLARD        CLEAR     47  40  75 CALM      30.19F
LINCOLN        CLEAR     46  35  65 NW3       30.22F
NEBRASKA CITY  CLEAR     54  21  28 CALM      30.20F
BEATRICE       CLEAR     43  35  74 CALM      30.22S
FALLS CITY     CLEAR     47  33  58 NW3       30.20S

...NORTHERN KANSAS...

CITY           SKY/WX    TMP DP  RH WIND       PRES   REMARKS
GOODLAND       CLEAR     42  32  67 S10       30.25F
HILL CITY      CLEAR     39  33  79 W3        30.25F
NORTON         CLEAR     39  27  60 SW7       30.23S WCI  34
PHILLIPSBURG   CLEAR     41  34  75 CALM      30.23F
SMITH CENTER   CLEAR     52  28  40 CALM      30.23F
HAYS           CLEAR     41  34  76 NW5       30.25S
RUSSELL        CLEAR     47  33  58 NW5       30.22S
CONCORDIA      CLEAR     49  32  52 CALM      30.22S
SALINA         CLEAR     47  36  65 N6        30.22S
TOPEKA         CLEAR     46  39  76 CALM      30.20R



USA.gov is the U.S. government's official web portal to all federal, state and local government web resources and services.